GW2215 Weather Reports


time (UTC)temp
C
wind
direction
speed
KPH
gust
KPH
rain 1hr
cm
rain 24hr
cm
rain mn
cm
humidity
%
barometer
mb
20260504174555 21 331 9.7 24.1 0.00 0.00 0.00 35 1005.6
20260504173050 20 327 6.4 27.4 0.00 0.00 0.00 33 1005.8
20260504171548 20 307 3.2 14.5 0.00 0.00 0.00 35 1005.8
20260504120124 11 301 6.4 17.7 0.00 0.00 0.00 74 1008.3
20260504081529 7 261 0.0 4.8 0.00 0.00 0.00 70 1008.4
20260504050006 10 282 1.6 6.4 0.00 0.00 0.00 50 1008.2
20260504044603 10 311 0.0 0.0 0.00 0.00 0.00 50 1008.1
20260504043057 10 311 0.0 3.2 0.00 0.00 0.00 49 1008.0
20260504041555 10 313 0.0 0.0 0.00 0.00 0.00 49 1007.9
20260504040055 10 313 0.0 0.0 0.00 0.00 0.00 49 1007.9
20260504034607 10 313 0.0 3.2 0.00 0.00 0.00 48 1007.8
20260504033050 10 313 1.6 3.2 0.00 0.00 0.00 47 1007.6
20260504031549 11 313 0.0 3.2 0.00 0.00 0.00 47 1007.7
20260504030148 11 313 0.0 3.2 0.00 0.00 0.00 47 1007.5
20260504024545 11 315 0.0 4.8 0.00 0.00 0.00 46 1007.8
20260504023044 11 305 0.0 4.8 0.00 0.00 0.00 45 1007.6
20260504021543 11 301 0.0 4.8 0.00 0.00 0.00 44 1007.6
20260504020043 12 298 0.0 6.4 0.00 0.00 0.00 44 1007.5
20260504014558 12 306 1.6 8.0 0.00 0.00 0.00 42 1007.4
20260504013045 12 299 0.0 4.8 0.00 0.00 0.00 42 1007.5
20260504011543 12 294 0.0 4.8 0.00 0.00 0.00 41 1007.0
20260504010042 12 290 0.0 1.6 0.00 0.00 0.00 40 1006.8
20260504004538 13 290 0.0 3.2 0.00 0.00 0.00 39 1006.8
20260504003048 13 295 0.0 4.8 0.00 0.00 0.00 37 1006.5
20260504001534 14 313 3.2 8.0 0.00 0.00 0.00 36 1006.3
20260504000034 14 292 3.2 12.9 0.00 0.00 0.00 36 1006.4
20260503234544 15 319 3.2 12.9 0.00 0.00 0.00 35 1006.3
20260503233031 15 310 1.6 12.9 0.00 0.00 0.00 34 1006.3
20260503231529 15 308 9.7 17.7 0.00 0.00 0.00 32 1006.1
20260503230029 15 279 6.4 16.1 0.00 0.00 0.00 32 1006.0
20260503224528 15 9 4.8 19.3 0.00 0.00 0.00 31 1005.9
20260503223157 15 42 12.9 24.1 0.00 0.00 0.00 30 1005.9
20260503221557 16 298 8.0 22.5 0.00 0.00 0.00 29 1006.1
20260503220055 16 15 9.7 22.5 0.00 0.00 0.00 30 1005.8
20260503214552 15 38 6.4 17.7 0.00 0.00 0.00 31 1006.1
20260503213057 15 299 8.0 32.2 0.00 0.00 0.00 31 1005.8
20260503211553 15 13 16.1 35.4 0.00 0.00 0.00 31 1005.9
20260503210100 15 335 12.9 27.4 0.00 0.00 0.00 31 1005.9
20260503204545 15 342 8.0 29.0 0.00 0.00 0.00 31 1006.0
20260503203050 15 18 8.0 30.6 0.00 0.00 0.00 31 1006.1
20260503201542 15 355 8.0 25.7 0.00 0.00 0.00 32 1006.0
20260503200042 15 346 12.9 27.4 0.00 0.00 0.00 32 1006.3
20260503194538 14 355 12.9 25.7 0.00 0.00 0.00 31 1006.1
20260503193036 14 311 8.0 19.3 0.00 0.00 0.00 32 1006.3
20260503191533 14 346 12.9 25.7 0.00 0.00 0.00 31 1006.6
20260503190031 14 24 12.9 24.1 0.00 0.00 0.00 32 1006.3
20260503184531 13 300 12.9 24.1 0.00 0.00 0.00 32 1006.6
20260503183039 13 33 6.4 25.7 0.00 0.00 0.00 33 1006.6
20260503181524 13 5 11.3 20.9 0.00 0.00 0.00 33 1006.9
20260503180021 13 360 11.3 25.7 0.00 0.00 0.00 33 1007.1